Regional Weather Roundup
Issued by NWS

Home | Current Version | Previous Version | Graphics & Text | Print | Product List | Glossary On
Versions: 1 2 3 4 5 6 7 8 9 10 11 12 13 14 15 16 17 18 19 20 21 22 23 24 25 26 27 28 29 30 31 32 33 34 35 36 37 38 39 40 41 42 43 44 45 46 47 48 49 50
286
ASUS43 KDTX 011610
RWRMI
MICHIGAN HOURLY REGIONAL WEATHER ROUNDUP
NATIONAL WEATHER SERVICE DETROIT/PONTIAC MI
1200 PM EDT SAT OCT 01 2016

NOTE: "FAIR" INDICATES FEW OR NO CLOUDS BELOW 12,000 FEET WITH NO
SIGNIFICANT WEATHER AND/OR OBSTRUCTION TO VISIBILITY.

MIZ047>049-052>055-059>063-066>070-074>076-081>083-011700-
SOUTHEAST LOWER MICHIGAN

CITY           SKY/WX    TMP DP  RH WIND       PRES   REMARKS
ADRIAN         PTSUNNY   64  55  72 SE5       30.06S
ALMA           CLOUDY    60  60  99 NE3       30.08F
ANN ARBOR      MOSUNNY   64  57  78 S7        30.05S
BAD AXE        CLOUDY    59  59  99 SE5       30.11F FOG
CARO           CLOUDY    59  58  97 E3        30.09S
DETROIT CITY   PTSUNNY   65  61  87 SE9       30.06F
DETROIT        CLOUDY    67  59  75 S9        30.07S
FLINT          CLOUDY    61  59  93 SE10      30.07S
GROSSE ILE     MOSUNNY   66  60  80 S10       30.06S
HILLSDALE      PTSUNNY   64  54  68 CALM      30.04S
HOWELL         CLOUDY    62  60  93 E5        30.05F

CITY           SKY/WX    TMP DP  RH WIND       PRES   REMARKS
JACKSON        MOSUNNY   64  58  80 SE7       30.05S
LAMBERTVILLE   PTSUNNY   67  56  69 S3        30.06F
LANSING        CLOUDY    61  58  90 E7        30.06F
LAPEER         DRIZZLE   59  58  97 E10       30.08F
MASON          CLOUDY    61  59  93 SE3       30.06S
MONROE         MOSUNNY   65  58  78 SE7       30.06S
MT. CLEMENS    CLOUDY    61  61 100 E6        30.06S FOG
PONTIAC        CLOUDY    59  58  96 E6        30.06S FOG
PORT HURON     CLOUDY    59  57  94 E6        30.09S
TRI CITIES     CLOUDY    60  58  92 E9        30.09F
MIDLAND        CLOUDY    59  58  96 E8        30.09S
TROY           CLOUDY    64  61  88 CALM      30.08F
SAGINAW HB     CLOUDY    61  57  88 E6        30.08F
$$
MIZ043>046-050>051-056>058-064>065-071>073-077>080-011700-
SOUTHWEST LOWER MICHIGAN

CITY           SKY/WX    TMP DP  RH WIND       PRES   REMARKS
BATTLE CREEK   PTSUNNY   64  57  78 SE6       30.04S
BENTON HARBOR  CLOUDY    63  58  83 VRB5      30.01F
BIG RAPIDS     CLOUDY    59  58  97 E8        30.08S FOG
COLDWATER      PTSUNNY   64  54  70 S6        30.03S
FREMONT        CLOUDY    59  58  97 E7        30.05F
HOLLAND        CLOUDY    60  57  89 E8        30.04F
GRAND RAPIDS   CLOUDY    60  57  89 E9        30.06R FOG
IONIA          CLOUDY    59  58  96 E7        30.05S FOG
KALAMAZOO      PTSUNNY   66  58  75 E7        30.03F
LUDINGTON      CLOUDY    60  57  90 E9G16     30.06F
MARSHALL       PTSUNNY   65  57  73 SE7G16    30.04R
MOUNT PLEASANT CLOUDY    59  58  96 E6        30.08S
MUSKEGON       CLOUDY    61  59  93 E7        30.05S
SOUTH HAVEN    CLOUDY    62  60  94 E3        30.02F
$$
MIZ016>042-011700-
NORTHERN LOWER MICHIGAN

CITY           SKY/WX    TMP DP  RH WIND       PRES   REMARKS
ALPENA         LGT RAIN  59  56  89 E9        30.14F FOG
BEAVER ISLAND  LGT RAIN  57  56  97 E12G17    30.16S
BELLAIRE       CLOUDY    60  56  88 NE7       30.13S
CADILLAC       CLOUDY    57  56  94 E8        30.09F FOG
CHARLEVOIX     CLOUDY    58  56  92 NE8       30.16F
FRANKFORT      LGT RAIN  60  54  80 E5        30.11R
GAYLORD        CLOUDY    57  53  86 E9        30.14S FOG
GRAYLING       CLOUDY    57  56  95 NE9       30.13S FOG
HARBOR SPRINGS CLOUDY    58  56  92 E14       30.14F
HOUGHTON LAKE  CLOUDY    58  56  93 NE9       30.11F
MANISTEE       LGT RAIN  59  56  89 NE9       30.08F
OSCODA         DRIZZLE   59  58  99 E6        30.12F
ROGERS CITY    CLOUDY    57  55  92 E7        30.17S FOG
TRAVERSE CITY  CLOUDY    61  56  83 E6        30.10S
$$
MIZ007>008-015-011700-
EASTERN UPPER MICHIGAN

CITY           SKY/WX    TMP DP  RH WIND       PRES   REMARKS
KINROSS        CLOUDY    58  50  75 E7        30.19F
MACKINAC ISLAN CLOUDY    59  53  80 E13G21    30.17S
NEWBERRY       PTSUNNY   60  53  77 NE7       30.18F
S. S. MARIE    CLOUDY    62  48  60 SE7       30.18S
MUNISING         N/A     62  54  74 N8        30.18F
$$
MIZ004>006-011>014-085-011700-
CENTRAL UPPER MICHIGAN

CITY           SKY/WX    TMP DP  RH WIND       PRES   REMARKS
MANISTIQUE     LGT RAIN  59  53  82 NE8       30.17F
ESCANABA       CLOUDY    61  54  77 NE8       30.16S
MENOMINEE      CLOUDY    61  57  88 NE10      30.13F
SAWYER-GWINN   CLOUDY    57  50  77 NE8       30.19F
$$
MIZ001>003-009>011-084-011700-
WESTERN UPPER MICHIGAN

CITY           SKY/WX    TMP DP  RH WIND       PRES   REMARKS
IRON MOUNTAIN  CLOUDY    61  52  72 NE6       30.17F
HOUGHTON       CLOUDY    61  55  81 E6        30.21F
COPPER HARBOR    N/A     61  56  83 SE5       30.21F
IRONWOOD       CLOUDY    58  54  86 CALM      30.22F
$$

ABBREVIATIONS USED IN REMARKS
   TC - TEMPERATURE IN CELSIUS
  WCI - WIND CHILL INDEX
   HX - HEAT INDEX
  VSB - VISIBILITY





USA.gov is the U.S. government's official web portal to all federal, state and local government web resources and services.